Weather in Chaohu

China     31°37′02″N   117°51′07″E
temp.,
°C
wind,
m/s
gust,
m/s
humid.,
%
clouds,
%
prec.,
mm/h
press.,
hPa
HPBL,
m
14 april, wed
wed1423:00+14ene6119098 0.2 1020476
02:00+12ene598899 0.4 1020442
05:00+12ene488694 0.1 1020368
08:00+12ene5984100 0.1 1022445
11:00+13ene5875100 0.1 1023564
14:00+14ene6869100 0.1 1020511
17:00+16e6866100 0.0 1018785
20:00+13e5116996 0.0 1018412
15 april, thu
thu1523:00+12e61375100 0.0 1018485
02:00+11ese6107387 0.0 1017405
05:00+11ese597496 0.0 1015344
08:00+11ene2277100 0.0 1017226
11:00+14s1172100 0.0 1017398
14:00+18sw2265100 0.0 1014696
17:00+18wnw1165100 0.0 1014426
20:00+17nne016987 0.0 101629
16 april, fri
fri1623:00+17ssw33795 0.0 101698
02:00+16wsw468893 0.0 1016180
05:00+15nw6975100 0.0 1017274
08:00+16n3550100 0.0 1019395
11:00+18nw2235100 0.0 1020587
14:00+19w3334100 0.0 1019567
17:00+19ssw1235100 0.0 1018240
20:00+17wsw1246100 0.0 102020
17 april, sat
sat1723:00+16sw345387 0.0 102085
02:00+15wsw345248 0.0 102096
05:00+13nnw355546 0.0 1022130
08:00+15nne474199 0.0 1025390
11:00+17nnw563182 0.0 1026982
14:00+19nnw4528100 0.0 10241188
17:00+18nnw343413 0.0 10231199
20:00+15n23405 0.0 1024154
18 april, sun
sun1823:00+14ne22470 0.0 102468
02:00+12ne224888 0.0 102368
05:00+11ese22520 0.0 102364
08:00+14e355243 0.0 1023232
11:00+18ese4536100 0.0 1022892
14:00+21ese5535100 0.0 10181032
17:00+20ese4645100 0.0 1017413
20:00+17e3654100 0.0 1017165